Date String (YYYY-MM-DD hh:mm:ss) UTC,Instrument flags,absolute air pressure of the measurement (hPa),sample flow rate (lpm),inlet stack bypass flow (lpm),air temperature of the measurement (°C),ambient temperature measured by the external sensor (°C),aerosol sample conditioner tube jacket temperature (°C),OPC LED temperature (°C),internal box temperature (°C),relative humidity of the measurement (%),span deviation,mass concentration of particles derived from Lorenz-Mie calculation of OPC scattering (μg/m³),mass concentration of particles derived from Lorenz-Mie calculation of OPC scattering (μg/m³),mass concentration of particles derived from Lorenz-Mie calculation of OPC scattering (μg/m³)
DateTimeUTC,F1_M11,P_M11,Q1_M11,Q2_M11,T1_M11,T2_M11,T3_M11,T4_M11,T5_M11,U1_M11,ZSPAN_M11,X0_M11,X2_M11,X1_M11
2023-06-03 11:00:00,SystemResetWarning,0829.7,5.00,000.00,030.4,028.8,000.0,038.8,032.0,28.6,-000.6,0013.73,0007.72,0006.86
2023-06-03 11:01:00,SystemResetWarning,0829.7,5.01,000.00,030.4,028.8,000.0,038.8,032.0,28.6,-000.5,0014.37,0007.77,0006.89
2023-06-03 11:02:00,SystemResetWarning,0829.7,5.00,000.00,030.4,028.8,000.0,038.8,032.0,28.6,-000.4,0014.61,0007.80,0006.87
2023-06-03 11:03:00,SystemResetWarning,0829.7,5.00,000.00,030.4,028.8,000.0,038.8,032.0,28.6,-000.7,0014.15,0007.77,0006.85
2023-06-03 11:04:00,SystemResetWarning,0829.7,5.00,000.00,030.4,028.8,000.0,038.8,032.0,28.6,-001.1,0013.60,0007.73,0006.82
2023-06-03 11:05:00,SystemResetWarning,0829.7,5.00,000.00,030.4,028.8,000.0,038.8,032.0,28.6,-000.6,0013.68,0007.69,0006.81
2023-06-03 11:06:00,SystemResetWarning,0829.8,5.00,000.00,030.4,028.8,000.0,038.8,032.0,28.5,-000.5,0013.66,0007.64,0006.77
2023-06-03 11:07:00,SystemResetWarning,0829.8,4.99,000.00,030.4,028.8,000.0,038.8,032.0,28.5,-001.0,0013.33,0007.54,0006.69
2023-06-03 11:08:00,SystemResetWarning,0829.7,5.00,000.00,030.4,028.8,000.0,038.8,032.0,28.5,-001.1,0012.49,0007.42,0006.61
2023-06-03 11:09:00,SystemResetWarning,0829.7,5.00,000.00,030.4,028.8,000.0,038.8,032.0,28.4,-000.5,0011.95,0007.31,0006.53
2023-06-03 11:10:00,SystemResetWarning,0829.7,5.00,000.00,030.4,028.8,000.0,038.8,032.0,28.4,0000.2,0011.77,0007.20,0006.44
2023-06-03 11:11:00,SystemResetWarning,0829.7,5.00,000.00,030.4,028.8,000.0,038.8,032.0,28.4,0000.8,0011.72,0007.13,0006.36
2023-06-03 11:12:00,SystemResetWarning,0829.7,5.01,000.00,030.4,028.8,000.0,038.8,032.0,28.4,0001.0,0011.16,0007.05,0006.28
2023-06-03 11:13:00,SystemResetWarning,0829.7,5.01,000.00,030.4,028.8,000.0,038.8,032.0,28.3,0001.3,0011.04,0006.96,0006.23
2023-06-03 11:14:00,SystemResetWarning,0829.7,5.01,000.00,030.4,028.8,000.0,038.8,032.0,28.3,0001.7,0010.99,0006.91,0006.17
2023-06-03 11:15:00,SystemResetWarning,0829.7,4.99,000.00,030.4,028.8,000.0,038.8,032.0,28.3,0002.1,0010.96,0006.83,0006.10
2023-06-03 11:16:00,SystemResetWarning,0829.7,4.99,000.00,030.4,028.8,000.0,038.8,032.0,28.3,0001.9,0010.76,0006.76,0006.02
2023-06-03 11:17:00,SystemResetWarning,0829.7,5.01,000.00,030.4,028.8,000.0,038.8,032.0,28.3,0001.8,0010.67,0006.69,0005.94
2023-06-03 11:18:00,SystemResetWarning,0829.7,5.01,000.00,030.4,028.8,000.0,038.8,032.0,28.3,0001.7,0010.70,0006.69,0005.91
2023-06-03 11:19:00,SystemResetWarning,0829.8,5.01,000.00,030.4,028.8,000.0,038.8,032.0,28.3,0001.7,0010.67,0006.67,0005.89
2023-06-03 11:20:00,SystemResetWarning,0829.8,5.00,000.00,030.4,028.8,000.0,038.8,032.0,28.3,0001.5,0010.77,0006.69,0005.89
2023-06-03 11:21:00,SystemResetWarning,0829.9,4.98,000.00,030.4,028.8,000.0,038.8,032.0,28.3,0001.8,0010.86,0006.72,0005.88
2023-06-03 11:22:00,SystemResetWarning,0829.8,5.00,000.00,030.4,028.8,000.0,038.8,032.0,28.4,0001.9,0010.79,0006.69,0005.88
2023-06-03 11:23:00,SystemResetWarning,0829.9,5.00,000.00,030.4,028.8,000.0,038.8,032.0,28.4,0001.4,0010.64,0006.62,0005.85
2023-06-03 11:24:00,SystemResetWarning,0829.9,5.00,000.00,030.4,028.8,000.0,038.8,032.0,28.4,0001.0,0010.52,0006.58,0005.82
2023-06-03 11:25:00,SystemResetWarning,0829.9,5.00,000.00,030.4,028.8,000.0,038.8,032.0,28.4,0001.0,0010.43,0006.56,0005.81
2023-06-03 11:26:00,SystemResetWarning,0829.9,5.01,000.00,030.4,028.8,000.0,038.8,032.0,28.4,0000.5,0010.40,0006.57,0005.82
2023-06-03 11:27:00,SystemResetWarning,0829.9,5.00,000.00,030.4,028.9,000.0,038.8,032.0,28.5,0000.2,0010.39,0006.60,0005.83
2023-06-03 11:28:00,SystemResetWarning,0829.9,4.99,000.00,030.4,028.9,000.0,038.8,032.0,28.5,0000.3,0010.39,0006.62,0005.86
2023-06-03 11:29:00,SystemResetWarning,0829.9,5.00,000.00,030.4,028.9,000.0,038.8,032.0,28.4,0000.4,0010.30,0006.60,0005.86
2023-06-03 11:30:00,SystemResetWarning,0830.0,5.00,000.00,030.4,028.9,000.0,038.8,032.0,28.4,0000.1,0010.24,0006.57,0005.86
2023-06-03 11:31:00,SystemResetWarning,0830.0,4.99,000.00,030.4,028.9,000.0,038.8,032.0,28.4,-000.2,0010.26,0006.55,0005.85
2023-06-03 11:32:00,SystemResetWarning,0830.0,5.00,000.00,030.4,028.9,000.0,038.8,032.0,28.4,-001.0,0010.19,0006.52,0005.84
2023-06-03 11:33:00,SystemResetWarning,0830.0,5.00,000.00,030.4,028.9,000.0,038.8,032.0,28.5,-001.3,0010.24,0006.52,0005.83
2023-06-03 11:34:00,SystemResetWarning,0830.0,5.01,000.00,030.4,028.9,000.0,038.8,032.0,28.5,-001.2,0010.35,0006.54,0005.84
2023-06-03 11:35:00,SystemResetWarning,0830.0,5.00,000.00,030.4,028.9,000.0,038.8,032.0,28.5,-000.8,0010.19,0006.51,0005.82
2023-06-03 11:36:00,SystemResetWarning,0830.0,5.00,000.00,030.4,028.8,000.0,038.8,032.0,28.5,-000.6,0010.17,0006.52,0005.82
2023-06-03 11:37:00,SystemResetWarning,0830.0,5.01,000.00,030.4,028.8,000.0,038.8,032.0,28.4,-000.5,0010.26,0006.52,0005.81
2023-06-03 11:38:00,SystemResetWarning,0830.0,5.00,000.00,030.4,028.8,000.0,038.8,032.0,28.4,-000.3,0010.28,0006.50,0005.79
2023-06-03 11:39:00,SystemResetWarning,0829.9,5.00,000.00,030.4,028.8,000.0,038.8,032.0,28.4,-000.4,0010.33,0006.48,0005.76
2023-06-03 11:40:00,SystemResetWarning,0830.0,5.00,000.00,030.4,028.8,000.0,038.8,032.0,28.4,-000.2,0010.50,0006.49,0005.74
2023-06-03 11:41:00,SystemResetWarning,0830.1,5.00,000.00,030.4,028.8,000.0,038.8,032.0,28.5,-000.4,0010.51,0006.49,0005.73
2023-06-03 11:42:00,SystemResetWarning,0830.0,5.01,000.00,030.4,028.8,000.0,038.8,032.0,28.5,-000.5,0010.62,0006.49,0005.73
2023-06-03 11:43:00,SystemResetWarning,0830.0,5.01,000.00,030.4,028.8,000.0,038.8,032.0,28.5,-000.1,0010.67,0006.46,0005.73
2023-06-03 11:44:00,SystemResetWarning,0830.0,4.99,000.00,030.4,028.8,000.0,038.8,032.0,28.5,0000.2,0010.78,0006.47,0005.74
2023-06-03 11:45:00,SystemResetWarning,0830.0,4.99,000.00,030.4,028.8,000.0,038.8,032.0,28.5,0000.6,0011.08,0006.48,0005.75
2023-06-03 11:46:00,SystemResetWarning,0830.1,5.00,000.00,030.4,028.8,000.0,038.8,032.0,28.5,0000.3,0011.29,0006.52,0005.80
2023-06-03 11:47:00,SystemResetWarning,0830.0,5.00,000.00,030.4,028.8,000.0,038.8,032.0,28.5,-000.2,0011.28,0006.55,0005.86
2023-06-03 11:48:00,SystemResetWarning,0830.1,5.00,000.00,030.4,028.8,000.0,038.8,032.0,28.5,0000.0,0011.28,0006.60,0005.92
2023-06-03 11:49:00,SystemResetWarning,0830.0,5.01,000.00,030.4,028.8,000.0,038.8,032.0,28.6,0000.4,0011.33,0006.67,0005.98
2023-06-03 11:50:00,SystemResetWarning,0830.0,5.00,000.00,030.4,028.8,000.0,038.8,032.0,28.6,0000.3,0011.34,0006.73,0006.06
2023-06-03 11:51:00,SystemResetWarning,0830.1,5.00,000.00,030.4,028.8,000.0,038.8,032.0,28.6,0000.1,0011.36,0006.78,0006.11
2023-06-03 11:52:00,SystemResetWarning,0830.0,5.00,000.00,030.4,028.8,000.0,038.8,032.0,28.6,0000.4,0011.44,0006.82,0006.16
2023-06-03 11:53:00,SystemResetWarning,0830.0,4.99,000.00,030.4,028.8,000.0,038.8,032.0,28.6,0000.8,0011.33,0006.85,0006.19
2023-06-03 11:54:00,SystemResetWarning,0830.0,5.00,000.00,030.4,028.8,000.0,038.8,032.0,28.6,0000.8,0011.31,0006.91,0006.22
2023-06-03 11:55:00,SystemResetWarning,0830.0,4.99,000.00,030.4,028.8,000.0,038.8,032.0,28.6,0000.4,0011.17,0006.92,0006.23
2023-06-03 11:56:00,SystemResetWarning,0830.1,5.00,000.00,030.4,028.8,000.0,038.8,032.0,28.6,0000.2,0010.80,0006.94,0006.26
2023-06-03 11:57:00,SystemResetWarning,0830.0,5.00,000.00,030.4,028.8,000.0,038.8,032.0,28.6,0001.0,0011.02,0006.95,0006.25
2023-06-03 11:58:00,SystemResetWarning,0830.0,5.00,000.00,030.4,028.8,000.0,038.8,032.0,28.6,0001.6,0011.92,0006.94,0006.22
2023-06-03 11:59:00,SystemResetWarning,0830.0,5.00,000.00,030.4,028.8,000.0,038.8,032.1,28.7,0001.5,0011.91,0006.93,0006.20
